Flag for Norway Weather past 2 weeks in Bergen, Norway

Now
50 °F

Cool.


Feels Like: 48 °F
Forecast: 48 / 50 °F
Wind: 5 mph from Southeast

Location: Bergen / Florida

Current Time: Oct 21, 2014 at 6:11:02 AM

Latest Report: Oct 21, 2014 at 5:00 AM


Visibility: N/A

Pressure: 29.41 "Hg

Humidity: 72%

Dew point: 41 °F

Location of BergenLocation

Historic Weather in Bergen — Graph

°F

Bergen temperature yesterday

Maximum temperature yesterday: 54 °F (at 12:00 AM)
Minimum temperature yesterday: 47 °F (at 9:00 PM)
Average temperature yesterday: 51 °F

Past Weeks' High & Low Weather Summary

 TemperatureHumidityPressure
High66 °F (Oct 6, 3:00 PM)91% (Oct 14, 10:00 AM)30.07 "Hg (Oct 14, 10:00 AM)
Low36 °F (Oct 16, 4:00 AM)29% (Oct 6, 2:00 PM)29.21 "Hg (Oct 8, 6:00 AM)
Average50 °F72%29.70 "Hg
* Reported Oct 6 4:00 AM — Oct 21 4:00 AM, Bergen, Weather by CustomWeather, © 2014

Note: Actual official high and low records may vary slightly from our data, if they occured in-between our weather recording intervals... More about our weather records

Advertising

Bergen weather history for previous 24 hours

 ConditionsComfort  
Time TempWeatherWind HumidityBarometerVisibility
4:00 AM
Oct 21
50 °FCool.6 mph71%29.44 "HgN/A
3:00 AM49 °FCool.5 mph76%29.47 "HgN/A
2:00 AM49 °FCool.6 mph77%29.50 "HgN/A
1:00 AM48 °FCool.5 mph78%29.54 "HgN/A
12:00 AM48 °FCool.6 mph81%29.55 "HgN/A
11:00 PM
Oct 20
47 °FPassing clouds.3 mph84%29.58 "Hg19 mi
10:00 PM47 °FCool.5 mph87%29.59 "HgN/A
9:00 PM47 °FCool.3 mph87%29.59 "HgN/A
8:00 PM48 °FPassing clouds.2 mph86%29.59 "Hg19 mi
7:00 PM49 °FCool.2 mph84%29.59 "HgN/A
6:00 PM50 °FCool.1 mph79%29.58 "HgN/A
5:00 PM51 °FOvercast.2 mph76%29.57 "Hg17 mi
4:00 PM52 °FCool.2 mph81%29.56 "HgN/A
3:00 PM51 °FCool.5 mph85%29.54 "HgN/A
2:00 PM52 °FSprinkles. Low clouds.7 mph85%29.50 "Hg4 mi
1:00 PM53 °FCool.5 mph85%29.47 "HgN/A
12:00 PM53 °FCool.2 mph87%29.47 "HgN/A
11:00 AM53 °FLow clouds.3 mph88%29.44 "Hg19 mi
10:00 AM53 °FCool.5 mph88%29.41 "HgN/A
9:00 AM52 °FCool.5 mph88%29.38 "HgN/A
8:00 AM52 °FSprinkles. Overcast.1 mph88%29.35 "Hg12 mi
7:00 AM52 °FCool.1 mph86%29.35 "HgN/A
Weather by CustomWeather, © 2014

See weather overviewHow to use our weather pages